| time (UTC) | temp F | wind direction | speed knots | gust knots | rain 1hr in | rain 24hr in | rain mn in | humidity % | barometer mb |
| 20260506105818 | 74 | 350 | 0.0 | 0.0 | 0.00 | 0.00 | 0.00 | 93 | 1008.0 |
| 20260506105315 | 74 | 350 | 0.0 | 0.0 | 0.00 | 0.00 | 0.00 | 93 | 1007.8 |
| 20260506104812 | 75 | 337 | 0.0 | 0.0 | 0.00 | 0.00 | 0.00 | 93 | 1007.6 |
| 20260506104310 | 75 | 301 | 0.0 | 0.0 | 0.00 | 0.00 | 0.00 | 93 | 1007.6 |
| 20260506103807 | 75 | 350 | 0.0 | 0.0 | 0.00 | 0.00 | 0.00 | 93 | 1007.5 |
| 20260506103304 | 75 | 347 | 0.0 | 0.9 | 0.00 | 0.00 | 0.00 | 93 | 1007.4 |
| 20260506102801 | 75 | 351 | 0.0 | 0.0 | 0.00 | 0.00 | 0.00 | 93 | 1007.5 |
| 20260506102259 | 75 | 351 | 0.0 | 0.0 | 0.00 | 0.00 | 0.00 | 93 | 1007.5 |
| 20260506101757 | 75 | 333 | 0.0 | 0.9 | 0.00 | 0.00 | 0.00 | 92 | 1007.6 |
| 20260506101253 | 75 | 338 | 0.9 | 1.7 | 0.00 | 0.00 | 0.00 | 92 | 1007.4 |
| 20260506100751 | 75 | 352 | 0.0 | 0.0 | 0.00 | 0.00 | 0.00 | 92 | 1007.5 |
| 20260506100249 | 75 | 5 | 0.0 | 0.0 | 0.00 | 0.00 | 0.00 | 92 | 1007.5 |
| 20260506095747 | 75 | 1 | 0.0 | 0.9 | 0.00 | 0.00 | 0.00 | 92 | 1007.5 |
| 20260506095244 | 75 | 347 | 0.0 | 0.0 | 0.00 | 0.00 | 0.00 | 92 | 1007.3 |
| 20260506094740 | 76 | 5 | 0.0 | 0.9 | 0.00 | 0.00 | 0.00 | 92 | 1007.2 |
| 20260506094239 | 76 | 353 | 0.0 | 0.0 | 0.00 | 0.00 | 0.00 | 92 | 1007.2 |
| 20260506093737 | 76 | 356 | 0.0 | 0.0 | 0.00 | 0.00 | 0.00 | 92 | 1007.1 |
| 20260506093234 | 76 | 4 | 0.0 | 0.0 | 0.00 | 0.00 | 0.00 | 92 | 1007.0 |
| 20260506092731 | 76 | 337 | 1.7 | 3.5 | 0.00 | 0.00 | 0.00 | 92 | 1007.0 |
| 20260506092229 | 76 | 351 | 0.0 | 0.9 | 0.00 | 0.00 | 0.00 | 92 | 1007.0 |
| 20260506091726 | 76 | 16 | 0.9 | 0.9 | 0.00 | 0.00 | 0.00 | 92 | 1007.1 |
| 20260506091224 | 76 | 354 | 0.0 | 0.0 | 0.00 | 0.00 | 0.00 | 92 | 1006.9 |
| 20260506090721 | 76 | 4 | 0.0 | 0.0 | 0.00 | 0.00 | 0.00 | 92 | 1007.2 |
| 20260506090218 | 75 | 347 | 0.0 | 0.0 | 0.00 | 0.00 | 0.00 | 92 | 1007.1 |
| 20260506085715 | 75 | 8 | 0.0 | 0.0 | 0.00 | 0.00 | 0.00 | 92 | 1007.0 |
| 20260506085211 | 75 | 351 | 0.0 | 0.9 | 0.00 | 0.00 | 0.00 | 93 | 1007.1 |
| 20260506084708 | 75 | 354 | 0.0 | 0.0 | 0.00 | 0.00 | 0.00 | 93 | 1007.0 |
| 20260506084204 | 75 | 8 | 0.9 | 0.9 | 0.00 | 0.00 | 0.00 | 92 | 1006.9 |
| 20260506083701 | 75 | 13 | 0.0 | 0.0 | 0.00 | 0.00 | 0.00 | 92 | 1007.0 |
| 20260506083159 | 75 | 342 | 0.0 | 0.0 | 0.00 | 0.00 | 0.00 | 92 | 1007.1 |
| 20260506082656 | 76 | 28 | 0.0 | 0.0 | 0.00 | 0.00 | 0.00 | 92 | 1007.1 |
| 20260506082150 | 76 | 9 | 0.0 | 0.9 | 0.00 | 0.00 | 0.00 | 92 | 1007.2 |
| 20260506081649 | 76 | 337 | 0.0 | 0.0 | 0.00 | 0.00 | 0.00 | 92 | 1007.3 |
| 20260506081146 | 76 | 5 | 0.9 | 1.7 | 0.00 | 0.00 | 0.00 | 92 | 1007.1 |
| 20260506080644 | 76 | 352 | 0.0 | 0.0 | 0.00 | 0.00 | 0.00 | 92 | 1007.4 |
| 20260506080140 | 76 | 9 | 0.0 | 0.0 | 0.00 | 0.00 | 0.00 | 92 | 1007.3 |
| 20260506073124 | 76 | 5 | 0.0 | 0.0 | 0.00 | 0.00 | 0.00 | 91 | 1007.7 |
| 20260506072620 | 76 | 0 | 0.0 | 0.0 | 0.00 | 0.00 | 0.00 | 91 | 1007.7 |
| 20260506072119 | 76 | 130 | 0.9 | 2.6 | 0.00 | 0.00 | 0.00 | 91 | 1007.7 |
| 20260506071616 | 76 | 14 | 0.9 | 1.7 | 0.00 | 0.00 | 0.00 | 91 | 1007.9 |
| 20260506071114 | 76 | 359 | 0.9 | 1.7 | 0.00 | 0.00 | 0.00 | 91 | 1008.0 |
| 20260506070610 | 76 | 3 | 0.0 | 0.0 | 0.00 | 0.00 | 0.00 | 91 | 1008.0 |
| 20260506070108 | 76 | 355 | 0.0 | 0.0 | 0.00 | 0.00 | 0.00 | 91 | 1007.9 |
| 20260506062045 | 76 | 351 | 0.0 | 0.0 | 0.00 | 0.00 | 0.00 | 91 | 1008.1 |
| 20260506061540 | 76 | 9 | 0.9 | 0.9 | 0.00 | 0.00 | 0.00 | 91 | 1008.3 |
| 20260506061038 | 76 | 339 | 0.0 | 0.9 | 0.00 | 0.00 | 0.00 | 91 | 1008.1 |
| 20260506060537 | 76 | 347 | 0.0 | 0.0 | 0.00 | 0.00 | 0.00 | 90 | 1008.2 |
| 20260506051005 | 77 | 10 | 0.0 | 0.9 | 0.00 | 0.00 | 0.00 | 89 | 1007.9 |
| 20260506050503 | 77 | 110 | 0.9 | 1.7 | 0.00 | 0.00 | 0.00 | 89 | 1008.0 |
| 20260506044953 | 77 | 60 | 0.9 | 1.7 | 0.00 | 0.00 | 0.00 | 88 | 1008.0 |
| 20260506044452 | 77 | 100 | 1.7 | 1.7 | 0.00 | 0.00 | 0.00 | 88 | 1008.1 |
| 20260506043948 | 77 | 354 | 0.0 | 0.0 | 0.00 | 0.00 | 0.00 | 88 | 1007.9 |
| 20260506043445 | 77 | 358 | 0.0 | 0.0 | 0.00 | 0.00 | 0.00 | 88 | 1008.2 |
| 20260506042943 | 77 | 357 | 0.9 | 1.7 | 0.00 | 0.00 | 0.00 | 88 | 1008.0 |
| 20260506042442 | 78 | 20 | 0.9 | 0.9 | 0.00 | 0.00 | 0.00 | 87 | 1008.1 |
| 20260506041940 | 78 | 6 | 0.9 | 0.9 | 0.00 | 0.00 | 0.00 | 87 | 1008.2 |
| 20260506041438 | 78 | 2 | 0.0 | 0.0 | 0.00 | 0.00 | 0.00 | 87 | 1008.2 |
| 20260506040935 | 78 | 355 | 0.0 | 0.9 | 0.00 | 0.00 | 0.00 | 87 | 1008.1 |
| 20260506040432 | 78 | 334 | 0.0 | 0.0 | 0.00 | 0.00 | 0.00 | 86 | 1008.0 |
| 20260506035928 | 78 | 354 | 0.0 | 0.0 | 0.00 | 0.00 | 0.00 | 87 | 1007.9 |
| 20260506035426 | 78 | 353 | 0.0 | 0.9 | 0.00 | 0.00 | 0.00 | 87 | 1007.8 |
| 20260506034922 | 78 | 0 | 0.0 | 0.9 | 0.00 | 0.00 | 0.00 | 87 | 1007.8 |
| 20260506034420 | 78 | 345 | 0.0 | 0.0 | 0.00 | 0.00 | 0.00 | 87 | 1007.6 |
| 20260506033916 | 78 | 356 | 0.0 | 0.0 | 0.00 | 0.00 | 0.00 | 87 | 1007.9 |
| 20260506033414 | 78 | 359 | 0.0 | 0.9 | 0.00 | 0.00 | 0.00 | 87 | 1007.8 |
| 20260506032910 | 78 | 339 | 0.9 | 1.7 | 0.00 | 0.00 | 0.00 | 86 | 1007.6 |
| 20260506032407 | 78 | 4 | 0.0 | 0.9 | 0.00 | 0.00 | 0.00 | 86 | 1007.8 |
| 20260506031904 | 78 | 1 | 0.0 | 0.9 | 0.00 | 0.00 | 0.00 | 86 | 1007.7 |
| 20260506031401 | 78 | 6 | 0.9 | 0.9 | 0.00 | 0.00 | 0.00 | 86 | 1007.8 |
| 20260506030859 | 78 | 6 | 0.0 | 0.0 | 0.00 | 0.00 | 0.00 | 86 | 1007.6 |
| 20260506030357 | 78 | 12 | 0.9 | 0.9 | 0.00 | 0.00 | 0.00 | 85 | 1007.6 |
| 20260506025853 | 78 | 348 | 0.0 | 0.0 | 0.00 | 0.00 | 0.00 | 85 | 1007.6 |
| 20260506025350 | 78 | 135 | 0.0 | 0.0 | 0.00 | 0.00 | 0.00 | 85 | 1007.4 |
| 20260506024847 | 78 | 332 | 0.9 | 0.9 | 0.00 | 0.00 | 0.00 | 85 | 1007.4 |
| 20260506024344 | 78 | 335 | 0.0 | 0.0 | 0.00 | 0.00 | 0.00 | 85 | 1007.2 |
| 20260506023840 | 78 | 334 | 0.0 | 0.0 | 0.00 | 0.00 | 0.00 | 85 | 1007.1 |
| 20260506023337 | 78 | 6 | 0.9 | 0.9 | 0.00 | 0.00 | 0.00 | 85 | 1007.1 |
| 20260506022834 | 78 | 4 | 0.0 | 0.0 | 0.00 | 0.00 | 0.00 | 84 | 1007.2 |
| 20260506022331 | 78 | 133 | 0.0 | 0.0 | 0.00 | 0.00 | 0.00 | 84 | 1006.8 |
| 20260506021829 | 78 | 145 | 1.7 | 1.7 | 0.00 | 0.00 | 0.00 | 84 | 1006.8 |
| 20260506021326 | 78 | 301 | 0.0 | 0.0 | 0.00 | 0.00 | 0.00 | 84 | 1006.5 |
| 20260506020822 | 78 | 0 | 0.0 | 0.9 | 0.00 | 0.00 | 0.00 | 84 | 1006.8 |
| 20260506020320 | 78 | 50 | 0.0 | 0.9 | 0.00 | 0.00 | 0.00 | 84 | 1006.6 |
| 20260506015818 | 79 | 334 | 0.0 | 0.9 | 0.00 | 0.00 | 0.00 | 84 | 1006.6 |
| 20260506015315 | 79 | 6 | 0.0 | 0.0 | 0.00 | 0.00 | 0.00 | 83 | 1006.5 |
| 20260506014812 | 79 | 143 | 1.7 | 2.6 | 0.00 | 0.00 | 0.00 | 83 | 1006.4 |
| 20260506014309 | 79 | 351 | 0.0 | 0.9 | 0.00 | 0.00 | 0.00 | 83 | 1006.2 |
| 20260506013806 | 79 | 15 | 0.0 | 0.0 | 0.00 | 0.00 | 0.00 | 84 | 1006.3 |
| 20260506013303 | 79 | 326 | 0.0 | 0.0 | 0.00 | 0.00 | 0.00 | 83 | 1006.1 |
| 20260506012759 | 79 | 328 | 0.0 | 0.0 | 0.00 | 0.00 | 0.00 | 83 | 1006.3 |
| 20260506012256 | 79 | 340 | 0.9 | 0.9 | 0.00 | 0.00 | 0.00 | 83 | 1006.1 |
| 20260506011754 | 80 | 1 | 0.0 | 0.0 | 0.00 | 0.00 | 0.00 | 83 | 1005.9 |
| 20260506011249 | 80 | 341 | 0.0 | 0.9 | 0.00 | 0.00 | 0.00 | 83 | 1005.9 |
| 20260506010748 | 79 | 20 | 0.9 | 0.9 | 0.00 | 0.00 | 0.00 | 83 | 1006.0 |
| 20260506010245 | 80 | 49 | 0.9 | 0.9 | 0.00 | 0.00 | 0.00 | 83 | 1005.8 |
| 20260506005742 | 80 | 58 | 0.0 | 0.9 | 0.00 | 0.00 | 0.00 | 82 | 1005.8 |
| 20260506005239 | 80 | 3 | 0.0 | 0.0 | 0.00 | 0.00 | 0.00 | 82 | 1005.5 |
| 20260506004735 | 80 | 14 | 1.7 | 1.7 | 0.00 | 0.00 | 0.00 | 82 | 1005.5 |
| 20260506004233 | 80 | 347 | 0.0 | 0.9 | 0.00 | 0.00 | 0.00 | 82 | 1005.7 |
| 20260506003728 | 80 | 330 | 0.0 | 0.0 | 0.00 | 0.00 | 0.00 | 81 | 1005.7 |
| 20260506003225 | 80 | 38 | 0.0 | 0.0 | 0.00 | 0.00 | 0.00 | 81 | 1005.6 |
| 20260506002721 | 80 | 10 | 0.0 | 0.0 | 0.00 | 0.00 | 0.00 | 81 | 1005.7 |
| 20260506002217 | 80 | 356 | 0.0 | 0.9 | 0.00 | 0.00 | 0.00 | 81 | 1005.5 |
| 20260506001713 | 80 | 359 | 0.0 | 0.9 | 0.00 | 0.00 | 0.00 | 80 | 1005.6 |
| 20260506001211 | 80 | 70 | 0.0 | 0.9 | 0.00 | 0.00 | 0.00 | 80 | 1005.7 |
| 20260506000708 | 81 | 341 | 0.0 | 0.9 | 0.00 | 0.00 | 0.00 | 80 | 1005.6 |
| 20260506000206 | 81 | 177 | 2.6 | 3.5 | 0.00 | 0.00 | 0.00 | 79 | 1005.6 |
| 20260505235703 | 81 | 40 | 0.0 | 0.0 | 0.00 | 0.00 | 0.00 | 79 | 1005.3 |
| 20260505235200 | 81 | 64 | 1.7 | 2.6 | 0.00 | 0.00 | 0.00 | 79 | 1005.5 |
| 20260505234657 | 81 | 148 | 2.6 | 2.6 | 0.00 | 0.00 | 0.00 | 79 | 1005.6 |
| 20260505234154 | 81 | 6 | 0.9 | 0.9 | 0.00 | 0.00 | 0.00 | 79 | 1005.6 |
| 20260505233650 | 82 | 18 | 0.0 | 0.0 | 0.00 | 0.00 | 0.00 | 79 | 1005.7 |
| 20260505233148 | 82 | 143 | 1.7 | 2.6 | 0.00 | 0.00 | 0.00 | 78 | 1005.5 |
| 20260505232646 | 82 | 5 | 0.0 | 0.0 | 0.00 | 0.00 | 0.00 | 78 | 1005.3 |
| 20260505232143 | 82 | 159 | 2.6 | 2.6 | 0.00 | 0.00 | 0.00 | 79 | 1005.5 |
| 20260505231639 | 82 | 33 | 0.9 | 0.9 | 0.00 | 0.00 | 0.00 | 79 | 1005.5 |
| 20260505231139 | 82 | 345 | 0.0 | 0.9 | 0.00 | 0.00 | 0.00 | 78 | 1005.7 |
| 20260505230636 | 82 | 2 | 2.6 | 5.2 | 0.00 | 0.00 | 0.00 | 78 | 1005.6 |
| 20260505230132 | 82 | 11 | 0.0 | 0.0 | 0.00 | 0.00 | 0.00 | 79 | 1005.6 |
| 20260505225629 | 82 | 1 | 0.0 | 0.9 | 0.00 | 0.00 | 0.00 | 79 | 1005.6 |
| 20260505225125 | 82 | 7 | 0.0 | 0.0 | 0.00 | 0.00 | 0.00 | 79 | 1005.5 |
| 20260505224622 | 82 | 140 | 0.9 | 1.7 | 0.00 | 0.00 | 0.00 | 78 | 1005.5 |
| 20260505224119 | 82 | 353 | 0.9 | 0.9 | 0.00 | 0.00 | 0.00 | 78 | 1005.6 |
| 20260505223616 | 82 | 345 | 1.7 | 2.6 | 0.00 | 0.00 | 0.00 | 79 | 1005.5 |
| 20260505223112 | 83 | 5 | 0.0 | 0.0 | 0.00 | 0.00 | 0.00 | 79 | 1005.2 |
| 20260505222609 | 82 | 334 | 0.0 | 1.7 | 0.00 | 0.00 | 0.00 | 78 | 1005.3 |
| 20260505222105 | 83 | 342 | 1.7 | 2.6 | 0.00 | 0.00 | 0.00 | 78 | 1005.5 |
| 20260505221602 | 84 | 137 | 1.7 | 3.5 | 0.00 | 0.00 | 0.00 | 77 | 1005.4 |
| 20260505221058 | 83 | 326 | 1.7 | 1.7 | 0.00 | 0.00 | 0.00 | 78 | 1005.5 |
| 20260505220556 | 83 | 39 | 2.6 | 3.5 | 0.00 | 0.00 | 0.00 | 78 | 1005.5 |
| 20260505220054 | 83 | 12 | 1.7 | 1.7 | 0.00 | 0.00 | 0.00 | 78 | 1005.6 |
| 20260505215552 | 83 | 354 | 0.9 | 1.7 | 0.00 | 0.00 | 0.00 | 78 | 1005.7 |
| 20260505215049 | 83 | 43 | 0.9 | 0.9 | 0.00 | 0.00 | 0.00 | 79 | 1005.9 |
| 20260505214547 | 84 | 21 | 1.7 | 2.6 | 0.00 | 0.00 | 0.00 | 78 | 1005.8 |
| 20260505214044 | 83 | 326 | 0.0 | 0.9 | 0.00 | 0.00 | 0.00 | 79 | 1005.9 |
| 20260505213542 | 83 | 148 | 1.7 | 1.7 | 0.00 | 0.00 | 0.00 | 78 | 1005.9 |
| 20260505213037 | 83 | 345 | 1.7 | 1.7 | 0.00 | 0.00 | 0.00 | 78 | 1005.9 |
| 20260505212534 | 84 | 349 | 0.9 | 1.7 | 0.00 | 0.00 | 0.00 | 77 | 1005.9 |
| 20260505212032 | 84 | 7 | 0.0 | 0.0 | 0.00 | 0.00 | 0.00 | 75 | 1006.2 |
| 20260505211529 | 84 | 347 | 0.0 | 0.0 | 0.00 | 0.00 | 0.00 | 76 | 1006.3 |
| 20260505211025 | 84 | 344 | 0.9 | 1.7 | 0.00 | 0.00 | 0.00 | 77 | 1006.4 |
| 20260505210522 | 83 | 355 | 0.0 | 0.0 | 0.00 | 0.00 | 0.00 | 77 | 1006.3 |
| 20260505210019 | 83 | 28 | 0.0 | 0.9 | 0.00 | 0.00 | 0.00 | 77 | 1006.4 |
| 20260505205517 | 83 | 6 | 0.0 | 0.9 | 0.00 | 0.00 | 0.00 | 77 | 1006.4 |
| 20260505205014 | 84 | 65 | 0.9 | 0.9 | 0.00 | 0.00 | 0.00 | 77 | 1006.4 |
| 20260505204512 | 84 | 27 | 0.0 | 0.9 | 0.00 | 0.00 | 0.00 | 75 | 1006.6 |
| 20260505204009 | 84 | 8 | 0.0 | 0.9 | 0.00 | 0.00 | 0.00 | 76 | 1006.6 |
| 20260505203505 | 84 | 40 | 1.7 | 2.6 | 0.00 | 0.00 | 0.00 | 76 | 1006.8 |
| 20260505203001 | 84 | 350 | 0.9 | 1.7 | 0.00 | 0.00 | 0.00 | 75 | 1006.9 |
| 20260505202458 | 83 | 34 | 2.6 | 3.5 | 0.00 | 0.00 | 0.00 | 77 | 1006.9 |
| 20260505201954 | 83 | 345 | 0.0 | 0.0 | 0.00 | 0.00 | 0.00 | 78 | 1006.9 |
| 20260505201451 | 83 | 84 | 0.9 | 1.7 | 0.00 | 0.00 | 0.00 | 77 | 1007.1 |
| 20260505200949 | 84 | 12 | 0.0 | 0.0 | 0.00 | 0.00 | 0.00 | 77 | 1007.0 |
| 20260505200447 | 84 | 359 | 1.7 | 1.7 | 0.00 | 0.00 | 0.00 | 75 | 1007.0 |
| 20260505195942 | 84 | 114 | 0.9 | 1.7 | 0.00 | 0.00 | 0.00 | 74 | 1007.0 |
| 20260505195439 | 84 | 12 | 2.6 | 3.5 | 0.00 | 0.00 | 0.00 | 75 | 1007.1 |
| 20260505194937 | 84 | 9 | 0.9 | 0.9 | 0.00 | 0.00 | 0.00 | 75 | 1007.2 |
| 20260505194434 | 84 | 326 | 1.7 | 3.5 | 0.00 | 0.00 | 0.00 | 75 | 1007.3 |
| 20260505193934 | 83 | 352 | 0.9 | 0.9 | 0.00 | 0.00 | 0.00 | 77 | 1007.5 |
| 20260505193432 | 83 | 359 | 0.0 | 0.9 | 0.00 | 0.00 | 0.00 | 77 | 1007.5 |
| 20260505192929 | 83 | 322 | 0.9 | 1.7 | 0.00 | 0.00 | 0.00 | 77 | 1007.5 |
| 20260505192427 | 83 | 321 | 2.6 | 3.5 | 0.00 | 0.00 | 0.00 | 78 | 1007.4 |
| 20260505191925 | 82 | 31 | 0.0 | 0.0 | 0.00 | 0.00 | 0.00 | 80 | 1007.6 |
| 20260505191424 | 82 | 170 | 0.9 | 1.7 | 0.00 | 0.00 | 0.00 | 79 | 1007.5 |
| 20260505190920 | 81 | 8 | 0.0 | 0.0 | 0.00 | 0.00 | 0.00 | 80 | 1007.6 |
| 20260505190415 | 82 | 10 | 0.0 | 0.9 | 0.00 | 0.00 | 0.00 | 81 | 1007.7 |
| 20260505185910 | 81 | 357 | 0.0 | 0.0 | 0.00 | 0.00 | 0.00 | 80 | 1007.8 |
| 20260505185408 | 81 | 359 | 0.0 | 0.9 | 0.00 | 0.00 | 0.00 | 81 | 1008.1 |
| 20260505184904 | 82 | 338 | 0.9 | 1.7 | 0.00 | 0.00 | 0.00 | 80 | 1007.8 |
| 20260505184401 | 82 | 121 | 0.9 | 1.7 | 0.00 | 0.00 | 0.00 | 80 | 1007.8 |
| 20260505183858 | 81 | 348 | 0.0 | 0.0 | 0.00 | 0.00 | 0.00 | 81 | 1007.8 |
| 20260505183355 | 80 | 332 | 0.0 | 0.9 | 0.00 | 0.00 | 0.00 | 82 | 1007.9 |
| 20260505182851 | 79 | 350 | 2.6 | 2.6 | 0.00 | 0.00 | 0.00 | 83 | 1008.0 |
| 20260505182348 | 79 | 7 | 0.9 | 0.9 | 0.00 | 0.00 | 0.00 | 84 | 1007.9 |
| 20260505181845 | 79 | 340 | 1.7 | 1.7 | 0.00 | 0.00 | 0.00 | 84 | 1008.1 |
| 20260505181337 | 79 | 354 | 0.9 | 1.7 | 0.00 | 0.00 | 0.00 | 84 | 1008.1 |
| 20260505180833 | 79 | 312 | 1.7 | 2.6 | 0.00 | 0.00 | 0.00 | 84 | 1008.0 |
| 20260505180330 | 79 | 27 | 1.7 | 1.7 | 0.00 | 0.00 | 0.00 | 84 | 1008.2 |
| 20260505175826 | 78 | 10 | 1.7 | 5.2 | 0.00 | 0.00 | 0.00 | 85 | 1008.2 |
| 20260505175323 | 78 | 349 | 0.9 | 0.9 | 0.00 | 0.00 | 0.00 | 86 | 1008.2 |
| 20260505174819 | 78 | 29 | 0.9 | 1.7 | 0.00 | 0.00 | 0.00 | 86 | 1008.0 |
| 20260505174317 | 78 | 347 | 0.0 | 0.0 | 0.00 | 0.00 | 0.00 | 86 | 1008.2 |
| 20260505173813 | 78 | 28 | 0.0 | 0.0 | 0.00 | 0.00 | 0.00 | 86 | 1008.3 |
| 20260505173309 | 78 | 30 | 0.9 | 0.9 | 0.00 | 0.00 | 0.00 | 86 | 1008.4 |
| 20260505172806 | 78 | 120 | 1.7 | 1.7 | 0.00 | 0.00 | 0.00 | 85 | 1008.4 |
| 20260505172306 | 78 | 358 | 0.0 | 0.9 | 0.00 | 0.00 | 0.00 | 85 | 1008.5 |
| 20260505171759 | 78 | 331 | 0.0 | 0.9 | 0.00 | 0.00 | 0.00 | 85 | 1008.3 |
| 20260505171255 | 78 | 335 | 2.6 | 3.5 | 0.00 | 0.00 | 0.00 | 85 | 1008.4 |
| 20260505170752 | 78 | 83 | 0.9 | 1.7 | 0.00 | 0.00 | 0.00 | 86 | 1008.3 |
| 20260505170250 | 77 | 340 | 0.9 | 0.9 | 0.00 | 0.00 | 0.00 | 87 | 1008.4 |
| 20260505165749 | 77 | 347 | 0.9 | 0.9 | 0.00 | 0.00 | 0.00 | 88 | 1008.5 |
| 20260505165246 | 77 | 355 | 0.9 | 0.9 | 0.00 | 0.00 | 0.00 | 88 | 1008.4 |
| 20260505164741 | 77 | 5 | 0.0 | 0.0 | 0.00 | 0.00 | 0.00 | 88 | 1008.7 |
| 20260505164239 | 77 | 342 | 0.0 | 0.0 | 0.00 | 0.00 | 0.00 | 87 | 1008.6 |
| 20260505163737 | 77 | 342 | 0.0 | 0.9 | 0.00 | 0.00 | 0.00 | 87 | 1008.6 |
| 20260505163235 | 77 | 338 | 0.9 | 0.9 | 0.00 | 0.00 | 0.00 | 87 | 1008.6 |
| 20260505162732 | 76 | 334 | 0.9 | 1.7 | 0.00 | 0.00 | 0.00 | 88 | 1008.6 |
| 20260505162229 | 76 | 65 | 0.9 | 0.9 | 0.00 | 0.00 | 0.00 | 89 | 1008.7 |
| 20260505161726 | 76 | 328 | 0.9 | 1.7 | 0.00 | 0.00 | 0.00 | 89 | 1008.7 |
| 20260505161224 | 75 | 355 | 0.0 | 0.9 | 0.00 | 0.00 | 0.00 | 90 | 1008.5 |
| 20260505160721 | 75 | 328 | 0.9 | 0.9 | 0.00 | 0.00 | 0.00 | 90 | 1008.4 |
| 20260505160218 | 75 | 9 | 0.9 | 0.9 | 0.00 | 0.00 | 0.00 | 90 | 1008.6 |
| 20260505153157 | 76 | 58 | 0.9 | 0.9 | 0.00 | 0.00 | 0.00 | 87 | 1008.4 |
| 20260505152654 | 76 | 4 | 0.9 | 1.7 | 0.00 | 0.00 | 0.00 | 87 | 1008.2 |
| 20260505152150 | 76 | 50 | 0.9 | 0.9 | 0.00 | 0.00 | 0.00 | 86 | 1008.2 |
| 20260505151645 | 76 | 327 | 1.7 | 1.7 | 0.00 | 0.00 | 0.00 | 86 | 1008.3 |
| 20260505151143 | 76 | 334 | 0.0 | 0.9 | 0.00 | 0.00 | 0.00 | 87 | 1008.2 |
| 20260505150639 | 76 | 330 | 0.9 | 1.7 | 0.00 | 0.00 | 0.00 | 87 | 1008.1 |
| 20260505150136 | 76 | 21 | 0.9 | 1.7 | 0.00 | 0.00 | 0.00 | 87 | 1008.1 |
| 20260505140605 | 74 | 56 | 0.9 | 1.7 | 0.00 | 0.00 | 0.00 | 90 | 1007.8 |
| 20260505125018 | 72 | 354 | 0.0 | 0.0 | 0.00 | 0.00 | 0.00 | 92 | 1007.9 |
| 20260505124515 | 72 | 342 | 0.0 | 0.0 | 0.00 | 0.00 | 0.00 | 92 | 1007.4 |
| 20260505124011 | 72 | 350 | 0.9 | 1.7 | 0.00 | 0.00 | 0.00 | 92 | 1007.2 |
| 20260505123508 | 71 | 70 | 0.9 | 1.7 | 0.00 | 0.00 | 0.00 | 92 | 1007.3 |
| 20260505123004 | 71 | 6 | 0.0 | 0.0 | 0.00 | 0.00 | 0.00 | 92 | 1007.4 |
| 20260505122501 | 71 | 352 | 0.0 | 0.0 | 0.00 | 0.00 | 0.00 | 93 | 1007.7 |
| 20260505121958 | 71 | 341 | 0.0 | 0.0 | 0.00 | 0.00 | 0.00 | 92 | 1007.5 |
| 20260505121455 | 71 | 301 | 0.0 | 0.0 | 0.00 | 0.00 | 0.00 | 93 | 1007.6 |
| 20260505120950 | 71 | 8 | 0.9 | 0.9 | 0.00 | 0.00 | 0.00 | 93 | 1007.5 |
| 20260505120447 | 71 | 37 | 1.7 | 1.7 | 0.00 | 0.00 | 0.00 | 92 | 1007.6 |
| 20260505115946 | 71 | 15 | 0.9 | 1.7 | 0.00 | 0.00 | 0.00 | 93 | 1007.6 |
| 20260505115443 | 71 | 316 | 0.9 | 1.7 | 0.00 | 0.00 | 0.00 | 93 | 1007.4 |
| 20260505114941 | 71 | 325 | 0.9 | 0.9 | 0.00 | 0.00 | 0.00 | 93 | 1007.2 |
| 20260505114437 | 71 | 1 | 0.0 | 0.9 | 0.00 | 0.00 | 0.00 | 93 | 1007.1 |
| 20260505113934 | 71 | 347 | 0.9 | 1.7 | 0.00 | 0.00 | 0.00 | 93 | 1007.0 |
| 20260505113430 | 70 | 356 | 0.0 | 0.0 | 0.00 | 0.00 | 0.00 | 93 | 1007.5 |
| 20260505112926 | 70 | 38 | 0.0 | 0.9 | 0.00 | 0.00 | 0.00 | 93 | 1007.6 |
| 20260505112424 | 70 | 359 | 0.9 | 0.9 | 0.00 | 0.00 | 0.00 | 93 | 1007.5 |
| 20260505111920 | 71 | 1 | 0.0 | 0.0 | 0.00 | 0.00 | 0.00 | 93 | 1007.3 |
| 20260505111414 | 71 | 349 | 0.0 | 0.0 | 0.00 | 0.00 | 0.00 | 92 | 1007.4 |
| 20260505110911 | 71 | 336 | 0.0 | 0.0 | 0.00 | 0.00 | 0.00 | 92 | 1007.3 |
| 20260505110408 | 71 | 343 | 0.9 | 1.7 | 0.00 | 0.00 | 0.00 | 92 | 1007.4 |